When you browse on this site, cookies collect data to enhance your experience and personalize the content and advertising you see.
Visit our Privacy Policy to learn more. By continuing to use the site, you agree to this use of cookies and data.
  • In United Kingdom
  • List of Countries
  • For 7 days
  • Water Temperature
  • Satellite Maps
  • Weather Map
  • Weather Widgets
  • user-avatar
    Login

    Hourly Weather Jelgava

    Today, 24 July, Wednesday

    Time Temperature Precipitation Wind Pressure Humidity
    00:00 +16°C° 0 mm 2 mps 762 mmHg 95%
    01:00 +16°C° 0 mm 2 mps 762 mmHg 96%
    02:00 +15°C° 0 mm 2 mps 762 mmHg 97%
    03:00 +15°C° 0 mm 2 mps 762 mmHg 97%
    04:00 +15°C° 0 mm 2 mps 762 mmHg 98%
    05:00 +16°C° 0 mm 2 mps 762 mmHg 98%
    06:00 +17°C° 0 mm 2 mps 762 mmHg 92%
    07:00 +19°C° 0 mm 2 mps 762 mmHg 86%
    08:00 +20°C° 0 mm 2 mps 762 mmHg 80%
    09:00 +23°C° 0 mm 2 mps 763 mmHg 73%
    10:00 +24°C° 0 mm 2 mps 763 mmHg 66%
    11:00 +25°C° 0 mm 2 mps 763 mmHg 59%
    12:00 +26°C° 0 mm 2 mps 763 mmHg 56%
    13:00 +26°C° 0 mm 2 mps 763 mmHg 54%
    14:00 +27°C° 0 mm 2 mps 763 mmHg 51%
    15:00 +26°C° 0 mm 2 mps 763 mmHg 54%
    16:00 +26°C° 0 mm 3 mps 763 mmHg 57%
    17:00 +25°C° 0 mm 3 mps 763 mmHg 59%
    18:00 +24°C° 0 mm 3 mps 762 mmHg 67%
    19:00 +21°C° 0 mm 2 mps 762 mmHg 74%
    20:00 +19°C° 0 mm 2 mps 762 mmHg 81%
    21:00 +18°C° 0 mm 2 mps 763 mmHg 85%
    22:00 +17°C° 0 mm 2 mps 763 mmHg 89%
    23:00 +16°C° 0 mm 2 mps 763 mmHg 93%

    Tomorrow, 25 July, Thursday

    Time Temperature Precipitation Wind Pressure Humidity
    00:00 +15°C° 0 mm 2 mps 763 mmHg 94%
    01:00 +15°C° 0 mm 2 mps 763 mmHg 95%
    02:00 +15°C° 0 mm 2 mps 763 mmHg 96%
    03:00 +15°C° 0 mm 2 mps 763 mmHg 96%
    04:00 +14°C° 0 mm 2 mps 763 mmHg 96%
    05:00 +14°C° 0 mm 2 mps 763 mmHg 96%
    06:00 +16°C° 0 mm 2 mps 763 mmHg 91%
    07:00 +18°C° 0 mm 3 mps 763 mmHg 85%
    08:00 +20°C° 0 mm 3 mps 763 mmHg 80%
    09:00 +21°C° 0 mm 3 mps 763 mmHg 74%
    10:00 +23°C° 0 mm 4 mps 763 mmHg 68%
    11:00 +25°C° 0 mm 4 mps 763 mmHg 62%
    12:00 +25°C° 0.2 mm 4 mps 762 mmHg 62%
    13:00 +25°C° 0.2 mm 5 mps 762 mmHg 63%
    14:00 +25°C° 0.2 mm 5 mps 762 mmHg 63%
    15:00 +25°C° 0.1 mm 5 mps 762 mmHg 62%
    16:00 +25°C° 0.1 mm 5 mps 762 mmHg 60%
    17:00 +25°C° 0.1 mm 5 mps 762 mmHg 58%
    18:00 +23°C° 0 mm 4 mps 762 mmHg 64%
    19:00 +21°C° 0 mm 3 mps 762 mmHg 70%
    20:00 +20°C° 0 mm 2 mps 762 mmHg 76%
    21:00 +19°C° 0 mm 2 mps 762 mmHg 78%
    22:00 +18°C° 0 mm 2 mps 763 mmHg 79%
    23:00 +17°C° 0 mm 2 mps 763 mmHg 81%

    Day after tomorrow, 26 July, Friday

    Time Temperature Precipitation Wind Pressure Humidity
    00:00 +18°C° 0 mm 2 mps 763 mmHg 79%
    01:00 +18°C° 0 mm 2 mps 763 mmHg 78%
    02:00 +18°C° 0 mm 2 mps 763 mmHg 77%
    03:00 +17°C° 0 mm 2 mps 763 mmHg 79%
    04:00 +17°C° 0 mm 2 mps 763 mmHg 81%
    05:00 +17°C° 0 mm 2 mps 763 mmHg 83%
    06:00 +18°C° 0 mm 2 mps 763 mmHg 80%
    07:00 +19°C° 0 mm 2 mps 763 mmHg 76%
    08:00 +20°C° 0 mm 3 mps 763 mmHg 73%
    09:00 +22°C° 0 mm 3 mps 763 mmHg 69%
    10:00 +24°C° 0 mm 3 mps 763 mmHg 65%
    11:00 +25°C° 0 mm 3 mps 763 mmHg 61%
    12:00 +26°C° 0 mm 3 mps 763 mmHg 59%
    13:00 +27°C° 0 mm 3 mps 763 mmHg 57%
    14:00 +27°C° 0 mm 3 mps 763 mmHg 55%
    15:00 +27°C° 0 mm 3 mps 763 mmHg 58%
    16:00 +27°C° 0 mm 3 mps 762 mmHg 61%
    17:00 +27°C° 0 mm 3 mps 762 mmHg 64%
    18:00 +25°C° 0 mm 3 mps 762 mmHg 70%
    19:00 +24°C° 0 mm 2 mps 763 mmHg 76%
    20:00 +23°C° 0 mm 2 mps 763 mmHg 82%
    21:00 +21°C° 0 mm 2 mps 763 mmHg 86%
    22:00 +19°C° 0 mm 2 mps 763 mmHg 89%
    23:00 +19°C° 0 mm 1 mps 763 mmHg 93%

    27 July, Saturday

    Time Temperature Precipitation Wind Pressure Humidity
    00:00 +18°C° 0 mm 2 mps 763 mmHg 93%
    01:00 +18°C° 0 mm 2 mps 763 mmHg 94%
    02:00 +18°C° 0 mm 2 mps 763 mmHg 95%
    03:00 +18°C° 0 mm 2 mps 763 mmHg 95%
    04:00 +18°C° 0 mm 2 mps 763 mmHg 95%
    05:00 +18°C° 0 mm 3 mps 763 mmHg 95%
    06:00 +20°C° 0 mm 3 mps 763 mmHg 88%
    07:00 +22°C° 0 mm 3 mps 763 mmHg 81%
    08:00 +24°C° 0 mm 3 mps 763 mmHg 75%
    09:00 +26°C° 0 mm 3 mps 763 mmHg 68%
    10:00 +28°C° 0 mm 4 mps 762 mmHg 61%
    11:00 +29°C° 0 mm 4 mps 762 mmHg 55%
    12:00 +30°C° 0 mm 4 mps 762 mmHg 54%
    13:00 +30°C° 0 mm 4 mps 762 mmHg 52%
    14:00 +32°C° 0 mm 4 mps 761 mmHg 51%
    15:00 +30°C° 0 mm 4 mps 761 mmHg 54%
    16:00 +30°C° 0 mm 4 mps 761 mmHg 57%
    17:00 +29°C° 0 mm 4 mps 761 mmHg 60%
    18:00 +28°C° 0 mm 3 mps 761 mmHg 65%
    19:00 +26°C° 0 mm 3 mps 761 mmHg 70%
    20:00 +25°C° 0 mm 3 mps 761 mmHg 74%
    21:00 +24°C° 0 mm 3 mps 761 mmHg 76%
    22:00 +23°C° 0 mm 2 mps 761 mmHg 78%
    23:00 +21°C° 0 mm 2 mps 761 mmHg 80%

    28 July, Sunday

    Time Temperature Precipitation Wind Pressure Humidity
    00:00 +20°C° 0 mm 2 mps 761 mmHg 80%
    01:00 +20°C° 0 mm 2 mps 761 mmHg 81%
    02:00 +19°C° 0 mm 2 mps 761 mmHg 82%
    03:00 +19°C° 0 mm 2 mps 761 mmHg 84%
    04:00 +19°C° 0 mm 2 mps 761 mmHg 86%
    05:00 +18°C° 0 mm 2 mps 761 mmHg 89%
    06:00 +20°C° 0 mm 2 mps 761 mmHg 83%
    07:00 +23°C° 0 mm 2 mps 761 mmHg 77%
    08:00 +25°C° 0 mm 2 mps 761 mmHg 72%
    09:00 +26°C° 0 mm 2 mps 761 mmHg 66%
    10:00 +27°C° 0 mm 3 mps 761 mmHg 60%
    11:00 +29°C° 0 mm 3 mps 761 mmHg 54%
    12:00 +29°C° 0 mm 4 mps 760 mmHg 55%
    13:00 +29°C° 0 mm 4 mps 760 mmHg 56%
    14:00 +29°C° 0 mm 4 mps 760 mmHg 57%
    15:00 +28°C° 0.1 mm 5 mps 760 mmHg 58%
    16:00 +28°C° 0.1 mm 5 mps 760 mmHg 58%
    17:00 +27°C° 0.1 mm 5 mps 760 mmHg 59%
    18:00 +25°C° 0 mm 4 mps 760 mmHg 59%
    19:00 +22°C° 0 mm 4 mps 760 mmHg 60%
    20:00 +20°C° 0 mm 4 mps 761 mmHg 60%
    21:00 +18°C° 0 mm 4 mps 761 mmHg 61%
    22:00 +17°C° 0 mm 3 mps 761 mmHg 62%
    23:00 +16°C° 0 mm 3 mps 762 mmHg 63%

    29 July, Monday

    Time Temperature Precipitation Wind Pressure Humidity
    00:00 +14°C° 0 mm 3 mps 762 mmHg 66%
    01:00 +13°C° 0 mm 3 mps 763 mmHg 70%
    02:00 +12°C° 0 mm 3 mps 763 mmHg 73%
    03:00 +11°C° 0 mm 3 mps 763 mmHg 75%
    04:00 +11°C° 0 mm 3 mps 763 mmHg 77%
    05:00 +10°C° 0 mm 2 mps 764 mmHg 79%
    06:00 +11°C° 0 mm 3 mps 764 mmHg 73%
    07:00 +13°C° 0 mm 3 mps 764 mmHg 67%
    08:00 +14°C° 0 mm 3 mps 764 mmHg 61%
    09:00 +16°C° 0 mm 3 mps 764 mmHg 55%
    10:00 +18°C° 0 mm 3 mps 764 mmHg 50%
    11:00 +19°C° 0 mm 3 mps 764 mmHg 45%
    12:00 +20°C° 0 mm 3 mps 764 mmHg 43%
    13:00 +20°C° 0 mm 3 mps 764 mmHg 42%
    14:00 +21°C° 0 mm 3 mps 763 mmHg 40%
    15:00 +21°C° 0 mm 3 mps 763 mmHg 43%
    16:00 +20°C° 0 mm 3 mps 763 mmHg 45%
    17:00 +20°C° 0 mm 4 mps 763 mmHg 47%
    18:00 +19°C° 0 mm 3 mps 762 mmHg 54%
    19:00 +17°C° 0 mm 2 mps 762 mmHg 61%
    20:00 +16°C° 0 mm 1 mps 762 mmHg 68%
    21:00 +15°C° 0 mm 2 mps 762 mmHg 73%
    22:00 +15°C° 0 mm 2 mps 762 mmHg 77%
    23:00 +14°C° 0 mm 2 mps 762 mmHg 82%
    Show more